Location: Most
(50.5133°N, 13.6207°E)
Time: 01:15:32
(UTC+02:00)

ISS - Pass Details

Date: 17 September 2021
Orbit: 417 x 423 km, 51.6° (Epoch: 22 October)

Event Time Altitude Azimuth Distance (km) Brightness Sun altitude
Rises 19:56:34 0° 196° (SSW) 2,350 0.1 -7.4°
Reaches altitude 10° 19:59:27 10° 169° (S) 1,493 -1.2 -7.9°
Maximum altitude 20:01:11 14° 138° (SE) 1,297 -1.8 -8.1°
Enters shadow 20:02:33 11° 112° (ESE) 1,422 -1.7 -8.4°
